ロニオス彗星

C/2001 OG108 ( LONEOS )

English version
Home page
Updated on November 3, 2003

---------------------------------------------------------------------

・ プロフィール

発見日 2001年7月28日
発見光度 18.7等
発見者 M. E. Van Ness (Lowell Observatory-LONEOS)

・ 軌道要素

Epoch 2002 Mar. 27.0 TT = JDT 2452360.5
T 2002 Mar. 15.20618 TT                                 MPC
q   0.9940480            (2000.0)            P               Q
n   0.02030608     Peri.  116.41991     -0.46521298     -0.86659330
a  13.3061362      Node    10.55525     -0.28900285     -0.04408086
e   0.9252940      Incl.   80.24516     +0.83669244     -0.49706430
P  48.54

・ 星図

・ 光度変化

        H = 12.8  G = 0.15                [   ,-62]  (              〜2002年 1月18日)
        m1 =  7.7 + 5 logΔ + 50   log r  [-62,-30]  (2002年 1月18日〜2002年 2月13日)
        m1 =  9.9 + 5 logΔ +  0.0 log r  [-30,  0]  (2002年 2月13日〜2002年 3月15日)
        m1 = 10.2 + 5 logΔ + 25.0 log r  [  0, 25]  (2002年 3月15日〜2002年 4月 9日)
        m1 = 10.5 + 5 logΔ + 15.0 log r  [ 25, 65]  (2002年 4月 9日〜2002年 5月19日)
        H = 12.8  G = 0.15                [ 65,   ]  (2002年 5月19日〜              )

        ※ 灰色の曲線は、H = 12.8  G = 0.15 の光度曲線です。

---------------------------------------------------------------------

軌道要素は Dr. Brian G. Marsden の計算によるもので、 M.P.E.C. 2002-C04 に掲載されたものです。
星図は StellaNavigator Ver.2.0 for Windows (アストロアーツ 編著 / アスキー出版局刊) で作成したものです。
光度グラフはComet for Windowsで作成したものです。

---------------------------------------------------------------------

Copyright(C) Seiichi Yoshida (comet@aerith.net). All rights reserved.